Location: Knowlton
(51.2333°N, 1.2667°E)
Time: 03:42:13
(UTC+00:00)

Genesis I - Pass Details

Date: 18 April 2021
Orbit: 483 x 537 km, 64.5° (Epoch: 06 May)

Event Time Altitude Azimuth Distance (km) Brightness Sun altitude
Rises 20:16:51 0° 320° (NW) 2,664 8.5 -12.0°
Reaches altitude 10° 20:19:08 10° 328° (NNW) 1,780 7.1 -12.3°
Maximum altitude 20:22:55 40° 39° (NE) 796 4.1 -12.8°
Enters shadow 20:25:27 19° 101° (E) 1,333 4.7 -13.1°
